Location: Góry Miechowskie
(50.3599°N, 20.1803°E)
Time: 09:38:58
(UTC+00:00)

IDEFIX/ARIANE 42P - Pass Details

Date: 13 September 2025
Orbit: 779 x 798 km, 98.6° (Epoch: 12 December)

Event Time Altitude Azimuth Distance (km) Brightness Sun altitude
Rises 23:00:46 0° 27° (NNE) 3,307 6.7 -35.9°
Reaches altitude 10° 23:03:55 10° 47° (NE) 2,375 5.5 -35.9°
Enters shadow 23:05:57 16° 69° (ENE) 1,991 4.9 -35.8°
